AEE7788 LCLK-EGCM

Flight info

Callsign AEE7788
Flight time 4h 52m
Altitude 32000
Route BONEK2B BONEK M601 EVENO UM601 EXELA UN127 LMO UN128 RUGAS DCT RAMAP DCT VIBOP DCT NIDLO/N0455F340 DCT SUBEN DCT ANELA L604 RELBI L602 RKN L980 TENLI L602 NALAX L46 MITSO DCT
Aircraft A321/M-SDE3FGHIRWY/LB1

Departure

Time 2026-04-20 20:47
Airport Larnaca International Airport (LCLK)

Arrival

Time 2026-04-21 01:39
Airport Leeds East Airport (EGCM)
Time Latitude Longitude Altitude Speed Heading
2026-04-20 20:12 34.87109 33.60987 21 ft 0 kts 226°
2026-04-20 20:13 34.87110 33.60987 21 ft 0 kts 226°
2026-04-20 20:27 34.87110 33.60988 20 ft 0 kts 226°
2026-04-20 20:37 34.87112 33.60990 20 ft 2 kts 226°
2026-04-20 20:37 34.87130 33.61012 21 ft 4 kts 225°
2026-04-20 20:37 34.87149 33.61035 23 ft 4 kts 225°
2026-04-20 20:37 34.87157 33.61045 21 ft 2 kts 225°
2026-04-20 20:39 34.87156 33.61044 20 ft 1 kts 225°
2026-04-20 20:39 34.87143 33.61045 23 ft 3 kts 155°
2026-04-20 20:39 34.87123 33.61086 20 ft 9 kts 118°
2026-04-20 20:40 34.87070 33.61159 20 ft 14 kts 133°
2026-04-20 20:40 34.86987 33.61260 20 ft 18 kts 136°
2026-04-20 20:40 34.86945 33.61354 18 ft 12 kts 74°
2026-04-20 20:40 34.87003 33.61437 16 ft 13 kts 46°
2026-04-20 20:41 34.87066 33.61516 17 ft 13 kts 45°
2026-04-20 20:41 34.87124 33.61586 20 ft 11 kts 45°
2026-04-20 20:41 34.87179 33.61653 18 ft 12 kts 45°
2026-04-20 20:41 34.87244 33.61731 18 ft 14 kts 45°
2026-04-20 20:42 34.87315 33.61819 18 ft 15 kts 45°
2026-04-20 20:42 34.87393 33.61913 17 ft 17 kts 45°
2026-04-20 20:42 34.87482 33.62021 16 ft 19 kts 44°
2026-04-20 20:42 34.87508 33.62158 17 ft 17 kts 97°
2026-04-20 20:43 34.87572 33.62275 17 ft 18 kts 44°
2026-04-20 20:43 34.87665 33.62383 18 ft 18 kts 44°
2026-04-20 20:43 34.87755 33.62493 18 ft 19 kts 46°
2026-04-20 20:43 34.87847 33.62609 20 ft 19 kts 45°
2026-04-20 20:44 34.87940 33.62721 21 ft 19 kts 45°
2026-04-20 20:44 34.88039 33.62842 20 ft 21 kts 45°
2026-04-20 20:44 34.88142 33.62968 19 ft 22 kts 45°
2026-04-20 20:44 34.88255 33.63106 17 ft 23 kts 45°
2026-04-20 20:45 34.88373 33.63247 16 ft 24 kts 44°
2026-04-20 20:45 34.88440 33.63373 18 ft 14 kts 104°
2026-04-20 20:45 34.88378 33.63468 19 ft 15 kts 136°
2026-04-20 20:45 34.88280 33.63493 16 ft 17 kts 217°
2026-04-20 20:46 34.88176 33.63370 17 ft 37 kts 224°
2026-04-20 20:46 34.87818 33.62932 21 ft 106 kts 225°
2026-04-20 20:46 34.87155 33.62122 22 ft 162 kts 226°
2026-04-20 20:46 34.86273 33.61064 371 ft 184 kts 230°
2026-04-20 20:47 34.85342 33.59963 1092 ft 188 kts 226°
2026-04-20 20:47 34.84413 33.58875 1932 ft 180 kts 227°
2026-04-20 20:47 34.83514 33.57899 2574 ft 171 kts 221°
2026-04-20 20:47 34.82372 33.57276 2752 ft 194 kts 189°
2026-04-20 20:48 34.80991 33.57589 2907 ft 215 kts 149°
2026-04-20 20:48 34.80002 33.58963 3199 ft 222 kts 109°
2026-04-20 20:48 34.79891 33.60782 3662 ft 217 kts 73°
2026-04-20 20:48 34.80662 33.62318 4092 ft 216 kts 39°
2026-04-20 20:49 34.81995 33.63017 4130 ft 213 kts
2026-04-20 20:49 34.83474 33.62928 4136 ft 213 kts 355°
2026-04-20 20:49 34.84950 33.62789 4139 ft 213 kts 355°
2026-04-20 20:49 34.86375 33.62362 4133 ft 213 kts 332°
2026-04-20 20:50 34.87513 33.61215 4154 ft 220 kts 306°
2026-04-20 20:50 34.88199 33.59479 4272 ft 239 kts 290°
2026-04-20 20:50 34.88780 33.57497 4498 ft 254 kts 290°
2026-04-20 20:50 34.89380 33.55442 4975 ft 260 kts 290°
2026-04-20 20:51 34.89984 33.53365 5519 ft 262 kts 290°
2026-04-20 20:51 34.90593 33.51261 6094 ft 264 kts 291°
2026-04-20 20:51 34.91205 33.49151 6658 ft 265 kts 291°
2026-04-20 20:51 34.91820 33.47039 7226 ft 264 kts 291°
2026-04-20 20:52 34.92434 33.44934 7760 ft 264 kts 291°
2026-04-20 20:52 34.93048 33.42834 7891 ft 265 kts 291°
2026-04-20 20:52 34.93677 33.40682 8273 ft 271 kts 290°
2026-04-20 20:52 34.94313 33.38506 8803 ft 273 kts 290°
2026-04-20 20:53 34.94950 33.36319 9348 ft 275 kts 290°
2026-04-20 20:53 34.95591 33.34114 9855 ft 277 kts 290°
2026-04-20 20:53 34.96234 33.31901 9955 ft 281 kts 290°
2026-04-20 20:53 34.96896 33.29622 10237 ft 290 kts 290°
2026-04-20 20:54 34.97587 33.27241 10353 ft 305 kts 290°
2026-04-20 20:54 34.98311 33.24741 10488 ft 320 kts 290°
2026-04-20 20:54 34.99063 33.22139 10746 ft 329 kts 290°
2026-04-20 20:54 34.99824 33.19498 11185 ft 332 kts 290°
2026-04-20 20:55 35.00590 33.16835 11650 ft 334 kts 290°
2026-04-20 20:55 35.01363 33.14153 11953 ft 336 kts 290°
2026-04-20 20:55 35.02141 33.11462 12418 ft 337 kts 290°
2026-04-20 20:55 35.02924 33.08754 12925 ft 339 kts 290°
2026-04-20 20:56 35.03706 33.06041 13415 ft 340 kts 289°
2026-04-20 20:56 35.04482 33.03346 13880 ft 342 kts 289°
2026-04-20 20:56 35.05269 33.00607 14299 ft 343 kts 289°
2026-04-20 20:56 35.06060 32.97845 14716 ft 345 kts 289°
2026-04-20 20:57 35.06855 32.95069 15127 ft 347 kts 289°
2026-04-20 20:57 35.07650 32.92278 15449 ft 350 kts 289°
2026-04-20 20:57 35.08427 32.89452 15865 ft 352 kts 288°
2026-04-20 20:57 35.09190 32.86608 16261 ft 354 kts 288°
2026-04-20 20:58 35.09949 32.83747 16661 ft 356 kts 287°
2026-04-20 20:58 35.10711 32.80861 17072 ft 357 kts 287°
2026-04-20 20:58 35.11476 32.77969 17470 ft 359 kts 287°
2026-04-20 20:58 35.12247 32.75064 17868 ft 361 kts 287°
2026-04-20 20:59 35.13025 32.72136 18215 ft 363 kts 287°
2026-04-20 20:59 35.13809 32.69199 18552 ft 364 kts 287°
2026-04-20 20:59 35.14596 32.66252 18877 ft 366 kts 287°
2026-04-20 20:59 35.15386 32.63293 19189 ft 368 kts 287°
2026-04-20 21:00 35.16184 32.60313 19491 ft 369 kts 287°
2026-04-20 21:00 35.16980 32.57330 19819 ft 371 kts 287°
2026-04-20 21:00 35.17778 32.54329 20149 ft 372 kts 287°
2026-04-20 21:00 35.18575 32.51316 20464 ft 373 kts 287°
2026-04-20 21:01 35.19374 32.48286 20770 ft 375 kts 287°
2026-04-20 21:01 35.20175 32.45252 21069 ft 376 kts 287°
2026-04-20 21:01 35.20982 32.42196 21368 ft 378 kts 287°
2026-04-20 21:01 35.21788 32.39132 21660 ft 379 kts 287°
2026-04-20 21:02 35.22599 32.36054 21948 ft 381 kts 287°
2026-04-20 21:02 35.23412 32.32969 22250 ft 382 kts 287°
2026-04-20 21:02 35.24231 32.29862 22543 ft 384 kts 287°
2026-04-20 21:02 35.25039 32.26790 22822 ft 386 kts 287°
2026-04-20 21:03 35.25859 32.23660 23106 ft 387 kts 287°
2026-04-20 21:03 35.26683 32.20519 23383 ft 389 kts 287°
2026-04-20 21:03 35.27511 32.17361 23647 ft 390 kts 287°
2026-04-20 21:03 35.28342 32.14193 23889 ft 392 kts 287°
2026-04-20 21:04 35.29176 32.11021 24123 ft 393 kts 287°
2026-04-20 21:04 35.30011 32.07830 24344 ft 394 kts 287°
2026-04-20 21:04 35.30845 32.04636 24391 ft 395 kts 287°
2026-04-20 21:04 35.31689 32.01412 24506 ft 399 kts 288°
2026-04-20 21:05 35.32544 31.98160 24657 ft 403 kts 288°
2026-04-20 21:05 35.33405 31.94884 24852 ft 405 kts 288°
2026-04-20 21:05 35.34269 31.91599 25078 ft 406 kts 288°
2026-04-20 21:05 35.35134 31.88303 25306 ft 407 kts 288°
2026-04-20 21:06 35.36002 31.84994 25532 ft 408 kts 288°
2026-04-20 21:06 35.36871 31.81675 25752 ft 410 kts 288°
2026-04-20 21:06 35.37740 31.78348 25979 ft 411 kts 288°
2026-04-20 21:06 35.38609 31.75008 26185 ft 412 kts 288°
2026-04-20 21:07 35.39481 31.71654 26407 ft 414 kts 288°
2026-04-20 21:07 35.40356 31.68290 26623 ft 415 kts 288°
2026-04-20 21:07 35.41233 31.64920 26833 ft 416 kts 288°
2026-04-20 21:07 35.42111 31.61538 27052 ft 417 kts 288°
2026-04-20 21:08 35.42992 31.58144 27261 ft 418 kts 288°
2026-04-20 21:08 35.43873 31.54744 27468 ft 419 kts 288°
2026-04-20 21:08 35.44758 31.51328 27648 ft 420 kts 288°
2026-04-20 21:08 35.45639 31.47907 27835 ft 422 kts 288°
2026-04-20 21:09 35.46522 31.44472 28016 ft 423 kts 288°
2026-04-20 21:09 35.47408 31.41018 28189 ft 424 kts 287°
2026-04-20 21:09 35.47994 31.38734 28301 ft 425 kts 288°
2026-04-20 21:09 35.48883 31.35275 28466 ft 426 kts 288°
2026-04-20 21:10 35.49775 31.31810 28631 ft 426 kts 288°
2026-04-20 21:10 35.50665 31.28345 28869 ft 425 kts 287°
2026-04-20 21:10 35.51553 31.24883 29110 ft 424 kts 287°
2026-04-20 21:10 35.52723 31.20311 29405 ft 424 kts 287°
2026-04-20 21:11 35.53316 31.17983 29546 ft 423 kts 287°
2026-04-20 21:11 35.54192 31.14532 29760 ft 423 kts 287°
2026-04-20 21:11 35.55067 31.11085 29968 ft 422 kts 287°
2026-04-20 21:11 35.55943 31.07647 30179 ft 422 kts 287°
2026-04-20 21:12 35.56820 31.04207 30346 ft 421 kts 287°
2026-04-20 21:12 35.57690 31.00775 30518 ft 421 kts 287°
2026-04-20 21:12 35.58560 30.97348 30691 ft 420 kts 287°
2026-04-20 21:12 35.59417 30.93966 30855 ft 420 kts 287°
2026-04-20 21:13 35.60290 30.90499 31020 ft 419 kts 287°
2026-04-20 21:13 35.61138 30.87127 31198 ft 419 kts 287°
2026-04-20 21:13 35.61997 30.83711 31361 ft 418 kts 287°
2026-04-20 21:13 35.62868 30.80300 31523 ft 417 kts 288°
2026-04-20 21:14 35.63745 30.76903 31675 ft 417 kts 288°
2026-04-20 21:14 35.64625 30.73511 31837 ft 416 kts 288°
2026-04-20 21:14 35.65504 30.70122 31957 ft 416 kts 288°
2026-04-20 21:14 35.66382 30.66735 31973 ft 415 kts 288°
2026-04-20 21:15 35.68125 30.59972 31972 ft 414 kts 287°
2026-04-20 21:15 35.69862 30.53215 31973 ft 414 kts 288°
2026-04-20 21:16 35.71595 30.46452 31972 ft 414 kts 287°
2026-04-20 21:16 35.73315 30.39682 31974 ft 415 kts 287°
2026-04-20 21:17 35.75037 30.32905 31971 ft 415 kts 287°
2026-04-20 21:17 35.76744 30.26168 31977 ft 415 kts 287°
2026-04-20 21:18 35.78458 30.19383 31982 ft 415 kts 287°
2026-04-20 21:18 35.80173 30.12598 31984 ft 415 kts 287°
2026-04-20 21:19 35.81887 30.05807 31981 ft 415 kts 287°
2026-04-20 21:20 35.84474 29.95611 31987 ft 416 kts 288°
2026-04-20 21:20 35.86321 29.88862 31983 ft 416 kts 289°
2026-04-20 21:21 35.88195 29.82118 31980 ft 415 kts 289°
2026-04-20 21:21 35.90034 29.75369 31984 ft 415 kts 289°
2026-04-20 21:22 35.91851 29.68618 31983 ft 415 kts 288°
2026-04-20 21:22 35.93662 29.61857 31982 ft 415 kts 288°
2026-04-20 21:23 35.96038 29.55405 31985 ft 415 kts 304°
2026-04-20 21:23 36.00023 29.50268 31982 ft 417 kts 319°
2026-04-20 21:24 36.04518 29.45732 31983 ft 417 kts 318°
2026-04-20 21:24 36.08997 29.41175 31982 ft 417 kts 318°
2026-04-20 21:25 36.13475 29.36612 31985 ft 417 kts 318°
2026-04-20 21:25 36.17929 29.32078 31983 ft 417 kts 318°
2026-04-20 21:26 36.22385 29.27488 31981 ft 417 kts 317°
2026-04-20 21:26 36.26799 29.22828 31992 ft 417 kts 317°
2026-04-20 21:27 36.31210 29.18167 31985 ft 417 kts 317°
2026-04-20 21:27 36.35634 29.13516 31987 ft 417 kts 318°
2026-04-20 21:28 36.40056 29.08868 31984 ft 416 kts 318°
2026-04-20 21:28 36.44466 29.04211 31983 ft 416 kts 317°
2026-04-20 21:29 36.48876 28.99545 31978 ft 416 kts 317°
2026-04-20 21:29 36.53284 28.94875 31973 ft 416 kts 318°
2026-04-20 21:30 36.57699 28.90203 31982 ft 417 kts 318°
2026-04-20 21:30 36.62114 28.85516 31979 ft 417 kts 318°
2026-04-20 21:31 36.66535 28.80814 31979 ft 418 kts 318°
2026-04-20 21:31 36.70952 28.76110 31979 ft 418 kts 318°
2026-04-20 21:32 36.75383 28.71414 31981 ft 418 kts 318°
2026-04-20 21:32 36.79819 28.66709 31979 ft 418 kts 318°
2026-04-20 21:33 36.84249 28.62007 32001 ft 418 kts 319°
2026-04-20 21:33 36.88678 28.57293 31989 ft 419 kts 319°
2026-04-20 21:34 36.93079 28.52599 31995 ft 419 kts 319°
2026-04-20 21:34 36.97518 28.47865 32007 ft 419 kts 319°
2026-04-20 21:35 37.01954 28.43121 32008 ft 419 kts 319°
2026-04-20 21:35 37.06380 28.38363 32012 ft 419 kts 319°
2026-04-20 21:36 37.10803 28.33607 32012 ft 419 kts 319°
2026-04-20 21:36 37.15213 28.28831 32015 ft 419 kts 318°
2026-04-20 21:37 37.19615 28.24056 32016 ft 418 kts 319°
2026-04-20 21:37 37.24030 28.19295 32017 ft 418 kts 319°
2026-04-20 21:38 37.28444 28.14531 32013 ft 418 kts 319°
2026-04-20 21:38 37.32850 28.09766 32015 ft 418 kts 319°
2026-04-20 21:39 37.37246 28.04981 32015 ft 418 kts 319°
2026-04-20 21:39 37.41629 28.00189 32022 ft 417 kts 319°
2026-04-20 21:40 37.46000 27.95393 32021 ft 417 kts 319°
2026-04-20 21:40 37.50376 27.90595 32018 ft 417 kts 319°
2026-04-20 21:41 37.54748 27.85804 32018 ft 417 kts 319°
2026-04-20 21:41 37.59088 27.81037 32012 ft 416 kts 319°
2026-04-20 21:42 37.63447 27.76233 32009 ft 416 kts 319°
2026-04-20 21:42 37.67809 27.71411 32008 ft 416 kts 319°
2026-04-20 21:43 37.72163 27.66592 32021 ft 416 kts 319°
2026-04-20 21:43 37.76527 27.61766 32012 ft 417 kts 319°
2026-04-20 21:44 37.80890 27.56925 31999 ft 417 kts 319°
2026-04-20 21:44 37.85256 27.52076 31999 ft 418 kts 319°
2026-04-20 21:45 37.89625 27.47221 31985 ft 418 kts 319°
2026-04-20 21:45 37.94011 27.42396 31998 ft 418 kts 319°
2026-04-20 21:46 37.98407 27.37587 32002 ft 417 kts 319°
2026-04-20 21:46 38.02798 27.32775 32009 ft 417 kts 320°
2026-04-20 21:47 38.07181 27.27948 32005 ft 417 kts 319°
2026-04-20 21:47 38.11562 27.23106 32007 ft 418 kts 319°
2026-04-20 21:48 38.15945 27.18259 32010 ft 418 kts 319°
2026-04-20 21:48 38.20325 27.13412 32004 ft 417 kts 320°
2026-04-20 21:49 38.24697 27.08561 32008 ft 417 kts 320°
2026-04-20 21:49 38.29065 27.03706 32012 ft 417 kts 320°
2026-04-20 21:50 38.33430 26.98857 32016 ft 417 kts 320°
2026-04-20 21:50 38.37814 26.94020 32012 ft 417 kts 320°
2026-04-20 21:51 38.42202 26.89185 32009 ft 417 kts 320°
2026-04-20 21:51 38.46555 26.84375 31997 ft 417 kts 320°
2026-04-20 21:52 38.50929 26.79519 31998 ft 416 kts 320°
2026-04-20 21:52 38.55294 26.74669 32002 ft 416 kts 320°
2026-04-20 21:53 38.59658 26.69821 32011 ft 416 kts 320°
2026-04-20 21:53 38.64017 26.64964 32006 ft 416 kts 320°
2026-04-20 21:54 38.68377 26.60104 32002 ft 415 kts 320°
2026-04-20 21:54 38.72728 26.55236 31987 ft 415 kts 320°
2026-04-20 21:55 38.77070 26.50362 31988 ft 415 kts 320°
2026-04-20 21:55 38.81419 26.45486 31992 ft 415 kts 320°
2026-04-20 21:56 38.85790 26.40642 31993 ft 415 kts 321°
2026-04-20 21:56 38.90244 26.35932 32005 ft 415 kts 321°
2026-04-20 21:57 38.94719 26.31248 32009 ft 415 kts 321°
2026-04-20 21:57 38.99176 26.26546 32006 ft 415 kts 321°
2026-04-20 21:58 39.03621 26.21804 31988 ft 415 kts 321°
2026-04-20 21:58 39.08060 26.17052 31994 ft 415 kts 321°
2026-04-20 21:59 39.12501 26.12289 31995 ft 415 kts 321°
2026-04-20 21:59 39.16191 26.08335 32009 ft 416 kts 321°
2026-04-20 22:00 39.20635 26.03564 32004 ft 416 kts 321°
2026-04-20 22:00 39.25072 25.98796 32005 ft 415 kts 320°
2026-04-20 22:01 39.29507 25.94024 31994 ft 415 kts 320°
2026-04-20 22:01 39.33901 25.89191 31995 ft 415 kts 319°
2026-04-20 22:02 39.38255 25.84303 31991 ft 415 kts 319°
2026-04-20 22:02 39.42609 25.79418 31991 ft 415 kts 319°
2026-04-20 22:03 39.46974 25.74540 31995 ft 415 kts 319°
2026-04-20 22:03 39.51338 25.69657 31995 ft 415 kts 319°
2026-04-20 22:04 39.55699 25.64762 31994 ft 415 kts 319°
2026-04-20 22:04 39.60056 25.59858 31990 ft 414 kts 319°
2026-04-20 22:05 39.64374 25.54990 31990 ft 414 kts 319°
2026-04-20 22:05 39.68721 25.50089 31992 ft 414 kts 319°
2026-04-20 22:06 39.73064 25.45188 32004 ft 413 kts 318°
2026-04-20 22:06 39.77403 25.40278 32002 ft 413 kts 318°
2026-04-20 22:07 39.81729 25.35362 31996 ft 413 kts 318°
2026-04-20 22:07 39.86052 25.30445 31992 ft 413 kts 318°
2026-04-20 22:08 39.90371 25.25523 31994 ft 412 kts 317°
2026-04-20 22:08 39.94065 25.19849 31993 ft 412 kts 305°
2026-04-20 22:09 39.97363 25.13752 31990 ft 412 kts 306°
2026-04-20 22:09 40.00674 25.07658 31989 ft 412 kts 306°
2026-04-20 22:10 40.03981 25.01560 31990 ft 412 kts 306°
2026-04-20 22:10 40.07285 24.95454 31978 ft 411 kts 305°
2026-04-20 22:11 40.10574 24.89341 31978 ft 411 kts 305°
2026-04-20 22:11 40.13840 24.83262 31982 ft 411 kts 305°
2026-04-20 22:12 40.17130 24.77145 31981 ft 411 kts 305°
2026-04-20 22:12 40.20414 24.71019 31980 ft 411 kts 305°
2026-04-20 22:13 40.23693 24.64887 31985 ft 411 kts 305°
2026-04-20 22:13 40.26963 24.58748 31983 ft 411 kts 305°
2026-04-20 22:14 40.30233 24.52601 31982 ft 411 kts 305°
2026-04-20 22:14 40.33497 24.46461 31983 ft 411 kts 305°
2026-04-20 22:15 40.36765 24.40313 31990 ft 411 kts 304°
2026-04-20 22:15 40.40021 24.34163 31985 ft 410 kts 304°
2026-04-20 22:16 40.43266 24.28021 31985 ft 409 kts 304°
2026-04-20 22:16 40.46505 24.21876 31985 ft 409 kts 304°
2026-04-20 22:17 40.49742 24.15731 31983 ft 409 kts 304°
2026-04-20 22:17 40.52974 24.09571 31985 ft 409 kts 304°
2026-04-20 22:18 40.56205 24.03403 31985 ft 409 kts 303°
2026-04-20 22:18 40.59430 23.97236 31990 ft 409 kts 303°
2026-04-20 22:19 40.62654 23.91068 31988 ft 409 kts 303°
2026-04-20 22:19 40.65870 23.84891 31995 ft 409 kts 303°
2026-04-20 22:20 40.69053 23.78752 31994 ft 409 kts 303°
2026-04-20 22:20 40.72268 23.72568 32009 ft 409 kts 303°
2026-04-20 22:21 40.75470 23.66386 32000 ft 408 kts 303°
2026-04-20 22:21 40.78662 23.60198 32000 ft 408 kts 303°
2026-04-20 22:22 40.81857 23.54015 31994 ft 408 kts 303°
2026-04-20 22:22 40.85050 23.47825 31993 ft 408 kts 303°
2026-04-20 22:23 40.88232 23.41620 31988 ft 408 kts 303°
2026-04-20 22:23 40.91411 23.35411 31989 ft 408 kts 303°
2026-04-20 22:24 40.94592 23.29193 31991 ft 408 kts 302°
2026-04-20 22:24 40.97768 23.22967 31989 ft 408 kts 302°
2026-04-20 22:25 41.00923 23.16772 31990 ft 408 kts 302°
2026-04-20 22:25 41.04100 23.10534 31985 ft 409 kts 302°
2026-04-20 22:26 41.07275 23.04291 32004 ft 409 kts 302°
2026-04-20 22:26 41.10904 22.98496 31998 ft 412 kts 317°
2026-04-20 22:27 41.18068 22.92075 31994 ft 415 kts 323°
2026-04-20 22:27 41.22905 22.87874 31993 ft 415 kts 323°
2026-04-20 22:28 41.27738 22.83664 31996 ft 415 kts 323°
2026-04-20 22:28 41.32579 22.79457 32007 ft 415 kts 323°
2026-04-20 22:29 41.37414 22.75245 32005 ft 416 kts 323°
2026-04-20 22:29 41.42246 22.71013 31999 ft 415 kts 323°
2026-04-20 22:30 41.47071 22.66775 31998 ft 415 kts 323°
2026-04-20 22:30 41.51896 22.62531 31998 ft 415 kts 323°
2026-04-20 22:31 41.56716 22.58279 32015 ft 415 kts 323°
2026-04-20 22:31 41.61538 22.54025 32006 ft 415 kts 323°
2026-04-20 22:32 41.66327 22.49798 32004 ft 415 kts 323°
2026-04-20 22:32 41.71139 22.45537 31999 ft 415 kts 323°
2026-04-20 22:33 41.75948 22.41264 31998 ft 415 kts 323°
2026-04-20 22:33 41.80753 22.36992 32021 ft 414 kts 323°
2026-04-20 22:34 41.85556 22.32722 31998 ft 413 kts 323°
2026-04-20 22:34 41.90340 22.28458 31989 ft 412 kts 323°
2026-04-20 22:35 41.95118 22.24190 31994 ft 412 kts 323°
2026-04-20 22:35 41.99887 22.19916 31994 ft 412 kts 323°
2026-04-20 22:36 42.04664 22.15631 32013 ft 412 kts 323°
2026-04-20 22:36 42.09436 22.11347 32018 ft 412 kts 323°
2026-04-20 22:37 42.14197 22.07057 32023 ft 411 kts 323°
2026-04-20 22:37 42.18951 22.02771 32026 ft 411 kts 323°
2026-04-20 22:38 42.23713 21.98479 32029 ft 411 kts 323°
2026-04-20 22:38 42.28458 21.94180 32041 ft 411 kts 323°
2026-04-20 22:39 42.33168 21.89904 32039 ft 410 kts 323°
2026-04-20 22:39 42.37901 21.85607 32033 ft 410 kts 323°
2026-04-20 22:40 42.42631 21.81298 32040 ft 410 kts 323°
2026-04-20 22:40 42.47350 21.76996 32054 ft 407 kts 323°
2026-04-20 22:41 42.52028 21.72726 32039 ft 402 kts 323°
2026-04-20 22:41 42.56635 21.68502 32030 ft 399 kts 322°
2026-04-20 22:42 42.61231 21.64282 32033 ft 399 kts 322°
2026-04-20 22:42 42.65827 21.60064 32032 ft 399 kts 322°
2026-04-20 22:43 42.70427 21.55834 32031 ft 399 kts 322°
2026-04-20 22:43 42.75026 21.51603 32031 ft 399 kts 322°
2026-04-20 22:44 42.79620 21.47362 32036 ft 399 kts 322°
2026-04-20 22:44 42.84205 21.43113 32035 ft 399 kts 322°
2026-04-20 22:45 42.88791 21.38855 32033 ft 399 kts 322°
2026-04-20 22:45 42.93373 21.34598 32033 ft 399 kts 322°
2026-04-20 22:46 42.97956 21.30339 32057 ft 398 kts 322°
2026-04-20 22:46 43.02532 21.26078 32046 ft 398 kts 322°
2026-04-20 22:47 43.07103 21.21812 32045 ft 398 kts 322°
2026-04-20 22:47 43.11667 21.17548 32043 ft 397 kts 322°
2026-04-20 22:48 43.16189 21.13305 32046 ft 396 kts 322°
2026-04-20 22:48 43.20760 21.09007 32069 ft 395 kts 322°
2026-04-20 22:49 43.25264 21.04767 32056 ft 396 kts 322°
2026-04-20 22:49 43.29801 21.00487 32054 ft 396 kts 322°
2026-04-20 22:50 43.34342 20.96206 32055 ft 396 kts 322°
2026-04-20 22:50 43.38873 20.91920 32053 ft 395 kts 322°
2026-04-20 22:51 43.42532 20.88200 32054 ft 392 kts 314°
2026-04-20 22:51 43.46465 20.83024 32070 ft 391 kts 314°
2026-04-20 22:52 43.50395 20.77833 32061 ft 392 kts 314°
2026-04-20 22:52 43.54326 20.72638 32061 ft 391 kts 314°
2026-04-20 22:53 43.58246 20.67441 32062 ft 391 kts 313°
2026-04-20 22:53 43.62154 20.62246 32073 ft 390 kts 314°
2026-04-20 22:54 43.66065 20.57052 32075 ft 390 kts 314°
2026-04-20 22:54 43.69968 20.51861 32074 ft 389 kts 313°
2026-04-20 22:55 43.73867 20.46655 32089 ft 389 kts 313°
2026-04-20 22:55 43.77752 20.41451 32081 ft 389 kts 313°
2026-04-20 22:56 43.81636 20.36244 32078 ft 389 kts 313°
2026-04-20 22:56 43.85491 20.31077 32071 ft 388 kts 313°
2026-04-20 22:57 43.89363 20.25869 32071 ft 388 kts 313°
2026-04-20 22:57 43.93216 20.20667 32070 ft 386 kts 313°
2026-04-20 22:58 43.97067 20.15460 32075 ft 386 kts 313°
2026-04-20 22:58 44.00916 20.10260 32062 ft 386 kts 313°
2026-04-20 22:59 44.04760 20.05059 32064 ft 386 kts 313°
2026-04-20 22:59 44.08598 19.99848 32061 ft 385 kts 313°
2026-04-20 23:00 44.12425 19.94636 32063 ft 384 kts 312°
2026-04-20 23:00 44.16236 19.89437 32062 ft 383 kts 312°
2026-04-20 23:01 44.20042 19.84237 32049 ft 383 kts 312°
2026-04-20 23:01 44.23851 19.79029 32076 ft 383 kts 312°
2026-04-20 23:02 44.27649 19.73812 32059 ft 383 kts 312°
2026-04-20 23:02 44.31442 19.68585 32057 ft 383 kts 312°
2026-04-20 23:03 44.35235 19.63371 32053 ft 382 kts 312°
2026-04-20 23:03 44.39022 19.58159 32055 ft 382 kts 312°
2026-04-20 23:04 44.42806 19.52930 32051 ft 382 kts 312°
2026-04-20 23:04 44.46553 19.47737 32048 ft 382 kts 311°
2026-04-20 23:05 44.50343 19.42479 32074 ft 381 kts 311°
2026-04-20 23:05 44.54081 19.37285 32061 ft 381 kts 311°
2026-04-20 23:06 44.57836 19.32061 32058 ft 380 kts 311°
2026-04-20 23:06 44.61591 19.26823 32053 ft 380 kts 311°
2026-04-20 23:07 44.65337 19.21580 32058 ft 380 kts 311°
2026-04-20 23:07 44.69086 19.16332 32051 ft 380 kts 311°
2026-04-20 23:08 44.72829 19.11076 32050 ft 380 kts 311°
2026-04-20 23:08 44.76563 19.05818 32068 ft 380 kts 311°
2026-04-20 23:09 44.80304 19.00545 32056 ft 381 kts 311°
2026-04-20 23:09 44.84045 18.95271 32044 ft 381 kts 311°
2026-04-20 23:10 44.87786 18.89988 32046 ft 381 kts 311°
2026-04-20 23:10 44.91494 18.84731 32049 ft 381 kts 311°
2026-04-20 23:11 44.95223 18.79435 32047 ft 381 kts 311°
2026-04-20 23:11 44.98957 18.74126 32049 ft 381 kts 311°
2026-04-20 23:12 45.02677 18.68810 32073 ft 381 kts 310°
2026-04-20 23:12 45.06387 18.63448 32064 ft 381 kts 310°
2026-04-20 23:13 45.10097 18.58073 32054 ft 382 kts 310°
2026-04-20 23:13 45.13809 18.52688 32052 ft 382 kts 310°
2026-04-20 23:14 45.17523 18.47293 32055 ft 383 kts 310°
2026-04-20 23:14 45.21235 18.41889 32060 ft 383 kts 310°
2026-04-20 23:15 45.24954 18.36476 32055 ft 383 kts 310°
2026-04-20 23:15 45.28676 18.31047 32056 ft 383 kts 310°
2026-04-20 23:16 45.32386 18.25613 32059 ft 384 kts 310°
2026-04-20 23:16 45.36099 18.20162 32059 ft 384 kts 310°
2026-04-20 23:17 45.39814 18.14704 32061 ft 384 kts 310°
2026-04-20 23:17 45.43522 18.09242 32053 ft 384 kts 310°
2026-04-20 23:18 45.47234 18.03771 32053 ft 384 kts 310°
2026-04-20 23:18 45.50945 17.98288 32053 ft 384 kts 310°
2026-04-20 23:19 45.54623 17.92836 32078 ft 384 kts 310°
2026-04-20 23:19 45.58323 17.87344 32084 ft 384 kts 310°
2026-04-20 23:20 45.62022 17.81851 32078 ft 383 kts 310°
2026-04-20 23:20 45.65712 17.76356 32068 ft 383 kts 310°
2026-04-20 23:21 45.69394 17.70850 32069 ft 383 kts 310°
2026-04-20 23:21 45.73074 17.65340 32075 ft 383 kts 310°
2026-04-20 23:22 45.76748 17.59828 32063 ft 383 kts 310°
2026-04-20 23:22 45.80424 17.54303 32072 ft 383 kts 310°
2026-04-20 23:23 45.84099 17.48783 32079 ft 383 kts 310°
2026-04-20 23:23 45.87769 17.43243 32078 ft 383 kts 310°
2026-04-20 23:24 45.91438 17.37697 32072 ft 383 kts 310°
2026-04-20 23:24 45.95109 17.32150 32074 ft 383 kts 310°
2026-04-20 23:25 45.98766 17.26594 32077 ft 383 kts 309°
2026-04-20 23:25 46.02415 17.21025 32072 ft 383 kts 309°
2026-04-20 23:26 46.06073 17.15448 32075 ft 383 kts 309°
2026-04-20 23:26 46.09730 17.09867 32106 ft 383 kts 309°
2026-04-20 23:27 46.13378 17.04276 32095 ft 383 kts 309°
2026-04-20 23:27 46.17005 16.98727 32087 ft 383 kts 309°
2026-04-20 23:28 46.20650 16.93137 32072 ft 383 kts 309°
2026-04-20 23:28 46.24294 16.87525 32072 ft 383 kts 309°
2026-04-20 23:29 46.27933 16.81900 32073 ft 383 kts 309°
2026-04-20 23:29 46.31567 16.76275 32072 ft 383 kts 309°
2026-04-20 23:30 46.35203 16.70643 32074 ft 383 kts 309°
2026-04-20 23:30 46.38825 16.65020 32081 ft 380 kts 309°
2026-04-20 23:31 46.42395 16.59467 32080 ft 379 kts 309°
2026-04-20 23:31 46.45982 16.53877 32077 ft 379 kts 309°
2026-04-20 23:32 46.49563 16.48280 32078 ft 379 kts 309°
2026-04-20 23:32 46.53147 16.42674 32082 ft 379 kts 309°
2026-04-20 23:33 46.56729 16.37052 32079 ft 379 kts 309°
2026-04-20 23:33 46.60302 16.31429 32077 ft 378 kts 309°
2026-04-20 23:34 46.63872 16.25804 32123 ft 378 kts 308°
2026-04-20 23:34 46.67414 16.20210 32077 ft 374 kts 308°
2026-04-20 23:35 46.72698 16.11834 32078 ft 374 kts 308°
2026-04-20 23:36 46.76224 16.06247 32075 ft 374 kts 308°
2026-04-20 23:36 46.79746 16.00646 32075 ft 374 kts 308°
2026-04-20 23:37 46.83285 15.95070 32074 ft 375 kts 309°
2026-04-20 23:37 46.86866 15.89530 32078 ft 375 kts 309°
2026-04-20 23:38 46.90439 15.83993 32083 ft 375 kts 309°
2026-04-20 23:38 46.92237 15.81196 32215 ft 378 kts 308°
2026-04-20 23:38 46.94037 15.78382 32352 ft 379 kts 308°
2026-04-20 23:38 46.95835 15.75563 32523 ft 380 kts 308°
2026-04-20 23:39 46.97643 15.72730 32705 ft 380 kts 308°
2026-04-20 23:39 46.99446 15.69904 32898 ft 380 kts 308°
2026-04-20 23:39 47.01250 15.67077 33081 ft 380 kts 308°
2026-04-20 23:39 47.03052 15.64251 33257 ft 380 kts 309°
2026-04-20 23:40 47.04854 15.61425 33427 ft 380 kts 309°
2026-04-20 23:40 47.06655 15.58595 33609 ft 379 kts 309°
2026-04-20 23:40 47.08430 15.55800 33781 ft 379 kts 309°
2026-04-20 23:40 47.10223 15.52969 33979 ft 379 kts 309°
2026-04-20 23:41 47.12021 15.50129 34061 ft 379 kts 309°
2026-04-20 23:41 47.15609 15.44451 34071 ft 380 kts 309°
2026-04-20 23:42 47.19202 15.38767 34075 ft 379 kts 309°
2026-04-20 23:42 47.22780 15.33087 34069 ft 378 kts 309°
2026-04-20 23:43 47.26351 15.27405 34075 ft 378 kts 308°
2026-04-20 23:43 47.29338 15.22643 34078 ft 378 kts 308°
2026-04-20 23:44 47.32882 15.16988 34078 ft 378 kts 308°
2026-04-20 23:44 47.36446 15.11273 34087 ft 379 kts 308°
2026-04-20 23:45 47.40021 15.05545 34079 ft 380 kts 308°
2026-04-20 23:45 47.43599 14.99794 34079 ft 380 kts 308°
2026-04-20 23:46 47.47174 14.94031 34102 ft 381 kts 308°
2026-04-20 23:46 47.50759 14.88235 34092 ft 383 kts 308°
2026-04-20 23:47 47.54356 14.82414 34086 ft 382 kts 308°
2026-04-20 23:47 47.57954 14.76582 34076 ft 385 kts 308°
2026-04-20 23:48 47.61563 14.70718 34075 ft 385 kts 308°
2026-04-20 23:48 47.65169 14.64829 34075 ft 386 kts 308°
2026-04-20 23:49 47.68786 14.58927 34082 ft 387 kts 308°
2026-04-20 23:49 47.72407 14.53011 34087 ft 387 kts 308°
2026-04-20 23:50 47.76029 14.47065 34082 ft 389 kts 308°
2026-04-20 23:50 47.79638 14.41126 34068 ft 391 kts 308°
2026-04-20 23:51 47.83317 14.35067 34069 ft 392 kts 308°
2026-04-20 23:51 47.86948 14.29078 34079 ft 393 kts 308°
2026-04-20 23:52 47.90610 14.23026 34091 ft 394 kts 308°
2026-04-20 23:52 47.94277 14.16949 34106 ft 394 kts 308°
2026-04-20 23:53 47.97937 14.10860 34109 ft 394 kts 309°
2026-04-20 23:53 48.01595 14.04757 34105 ft 395 kts 308°
2026-04-20 23:54 48.05256 13.98645 34103 ft 395 kts 308°
2026-04-20 23:54 48.08916 13.92525 34108 ft 395 kts 308°
2026-04-20 23:55 48.12570 13.86388 34116 ft 395 kts 308°
2026-04-20 23:55 48.16221 13.80246 34117 ft 395 kts 308°
2026-04-20 23:56 48.19870 13.74097 34120 ft 395 kts 308°
2026-04-20 23:56 48.23512 13.67945 34120 ft 394 kts 308°
2026-04-20 23:57 48.27151 13.61783 34140 ft 394 kts 308°
2026-04-20 23:57 48.30794 13.55597 34114 ft 396 kts 309°
2026-04-20 23:58 48.34450 13.49370 34107 ft 398 kts 309°
2026-04-20 23:58 48.38113 13.43123 34098 ft 399 kts 309°
2026-04-20 23:59 48.41784 13.36847 34103 ft 400 kts 309°
2026-04-20 23:59 48.45484 13.30647 34107 ft 402 kts 311°
2026-04-21 00:00 48.49429 13.24654 34113 ft 403 kts 312°
2026-04-21 00:00 48.53421 13.18721 34131 ft 403 kts 312°
2026-04-21 00:01 48.57389 13.12709 34135 ft 405 kts 312°
2026-04-21 00:01 48.61367 13.06588 34117 ft 406 kts 312°
2026-04-21 00:02 48.65301 13.00516 34114 ft 407 kts 312°
2026-04-21 00:02 48.69267 12.94386 34119 ft 408 kts 312°
2026-04-21 00:03 48.73242 12.88240 34128 ft 409 kts 312°
2026-04-21 00:03 48.77216 12.82077 34139 ft 409 kts 312°
2026-04-21 00:04 48.81187 12.75901 34142 ft 409 kts 311°
2026-04-21 00:04 48.85163 12.69701 34142 ft 411 kts 312°
2026-04-21 00:05 48.89151 12.63476 34132 ft 412 kts 312°
2026-04-21 00:05 48.93146 12.57220 34132 ft 413 kts 312°
2026-04-21 00:06 48.97143 12.50938 34144 ft 413 kts 312°
2026-04-21 00:06 49.01142 12.44654 34147 ft 414 kts 312°
2026-04-21 00:07 49.05137 12.38355 34139 ft 414 kts 312°
2026-04-21 00:07 49.09136 12.32034 34172 ft 414 kts 312°
2026-04-21 00:08 49.13134 12.25705 34156 ft 415 kts 312°
2026-04-21 00:08 49.17137 12.19339 34151 ft 416 kts 312°
2026-04-21 00:09 49.21144 12.12949 34147 ft 416 kts 312°
2026-04-21 00:09 49.25149 12.06547 34149 ft 417 kts 312°
2026-04-21 00:10 49.29154 12.00133 34144 ft 417 kts 312°
2026-04-21 00:10 49.33162 11.93698 34154 ft 417 kts 312°
2026-04-21 00:11 49.37168 11.87261 34163 ft 417 kts 312°
2026-04-21 00:11 49.41172 11.80794 34152 ft 418 kts 312°
2026-04-21 00:12 49.45182 11.74312 34149 ft 419 kts 312°
2026-04-21 00:12 49.49199 11.67815 34141 ft 419 kts 312°
2026-04-21 00:13 49.53212 11.61304 34149 ft 420 kts 312°
2026-04-21 00:13 49.57220 11.54761 34158 ft 420 kts 312°
2026-04-21 00:14 49.61200 11.48248 34165 ft 420 kts 312°
2026-04-21 00:14 49.65207 11.41677 34170 ft 421 kts 312°
2026-04-21 00:15 49.69225 11.35072 34163 ft 423 kts 312°
2026-04-21 00:15 49.73251 11.28450 34159 ft 423 kts 312°
2026-04-21 00:16 49.77280 11.21805 34171 ft 423 kts 312°
2026-04-21 00:16 49.81352 11.15211 34182 ft 424 kts 313°
2026-04-21 00:17 49.85452 11.08656 34189 ft 424 kts 313°
2026-04-21 00:17 49.89553 11.02082 34191 ft 424 kts 313°
2026-04-21 00:18 49.93636 10.95478 34187 ft 425 kts 313°
2026-04-21 00:18 49.97728 10.88837 34188 ft 425 kts 313°
2026-04-21 00:19 50.01822 10.82190 34192 ft 426 kts 313°
2026-04-21 00:19 50.05909 10.75524 34199 ft 426 kts 313°
2026-04-21 00:20 50.10002 10.68840 34201 ft 426 kts 313°
2026-04-21 00:20 50.14089 10.62146 34205 ft 426 kts 313°
2026-04-21 00:21 50.18171 10.55447 34206 ft 427 kts 313°
2026-04-21 00:21 50.22256 10.48711 34199 ft 428 kts 313°
2026-04-21 00:22 50.26380 10.42001 34196 ft 428 kts 314°
2026-04-21 00:22 50.30547 10.35348 34202 ft 428 kts 314°
2026-04-21 00:23 50.34678 10.28713 34207 ft 429 kts 313°
2026-04-21 00:23 50.38650 10.21753 34207 ft 429 kts 311°
2026-04-21 00:24 50.42675 10.14856 34210 ft 428 kts 313°
2026-04-21 00:24 50.46794 10.08088 34214 ft 429 kts 313°
2026-04-21 00:25 50.50858 10.01228 34214 ft 430 kts 312°
2026-04-21 00:25 50.54879 9.94277 34218 ft 430 kts 311°
2026-04-21 00:26 50.58744 9.87084 34219 ft 430 kts 309°
2026-04-21 00:26 50.62514 9.79765 34207 ft 430 kts 309°
2026-04-21 00:27 50.66295 9.72462 34223 ft 430 kts 309°
2026-04-21 00:27 50.70109 9.65189 34224 ft 430 kts 309°
2026-04-21 00:28 50.73921 9.57923 34225 ft 430 kts 309°
2026-04-21 00:28 50.77733 9.50645 34227 ft 430 kts 309°
2026-04-21 00:29 50.81532 9.43353 34227 ft 430 kts 309°
2026-04-21 00:29 50.85321 9.36046 34227 ft 429 kts 309°
2026-04-21 00:30 50.89106 9.28726 34231 ft 429 kts 309°
2026-04-21 00:30 50.92245 9.22650 34234 ft 429 kts 309°
2026-04-21 00:31 50.96024 9.15321 34240 ft 429 kts 309°
2026-04-21 00:31 50.99797 9.07982 34242 ft 429 kts 309°
2026-04-21 00:32 51.03569 9.00622 34234 ft 430 kts 309°
2026-04-21 00:32 51.07344 8.93242 34232 ft 430 kts 309°
2026-04-21 00:33 51.11112 8.85852 34239 ft 431 kts 309°
2026-04-21 00:33 51.14875 8.78422 34239 ft 431 kts 309°
2026-04-21 00:34 51.18629 8.70979 34238 ft 431 kts 309°
2026-04-21 00:34 51.22388 8.63541 34245 ft 431 kts 309°
2026-04-21 00:35 51.26121 8.56147 34245 ft 431 kts 309°
2026-04-21 00:35 51.29869 8.48670 34242 ft 431 kts 309°
2026-04-21 00:36 51.33623 8.41178 34247 ft 432 kts 309°
2026-04-21 00:36 51.37390 8.33689 34247 ft 432 kts 309°
2026-04-21 00:37 51.41162 8.26193 34251 ft 432 kts 309°
2026-04-21 00:37 51.44933 8.18685 34255 ft 433 kts 309°
2026-04-21 00:38 51.48698 8.11157 34253 ft 432 kts 309°
2026-04-21 00:38 51.52448 8.03625 34259 ft 432 kts 309°
2026-04-21 00:39 51.56196 7.96065 34262 ft 433 kts 309°
2026-04-21 00:39 51.59951 7.88493 34259 ft 433 kts 309°
2026-04-21 00:40 51.63706 7.80893 34262 ft 434 kts 309°
2026-04-21 00:40 51.67457 7.73268 34251 ft 434 kts 309°
2026-04-21 00:41 51.71209 7.65646 34260 ft 434 kts 309°
2026-04-21 00:41 51.74947 7.58008 34264 ft 434 kts 308°
2026-04-21 00:42 51.78677 7.50352 34266 ft 433 kts 309°
2026-04-21 00:42 51.82403 7.42700 34264 ft 434 kts 309°
2026-04-21 00:43 51.86137 7.35009 34254 ft 435 kts 309°
2026-04-21 00:43 51.89861 7.27291 34254 ft 436 kts 308°
2026-04-21 00:44 51.93596 7.19550 34260 ft 436 kts 309°
2026-04-21 00:44 51.97326 7.11796 34264 ft 436 kts 308°
2026-04-21 00:45 52.02884 7.00191 34273 ft 436 kts 308°
2026-04-21 00:45 52.06598 6.92401 34274 ft 436 kts 308°
2026-04-21 00:46 52.10309 6.84594 34273 ft 437 kts 308°
2026-04-21 00:46 52.13373 6.76080 34274 ft 438 kts 292°
2026-04-21 00:47 52.15445 6.66754 34278 ft 439 kts 291°
2026-04-21 00:47 52.17544 6.57396 34280 ft 439 kts 291°
2026-04-21 00:48 52.19626 6.48046 34281 ft 439 kts 291°
2026-04-21 00:48 52.21684 6.38667 34286 ft 439 kts 291°
2026-04-21 00:49 52.23728 6.29269 34292 ft 439 kts 291°
2026-04-21 00:49 52.25770 6.19883 34294 ft 439 kts 291°
2026-04-21 00:50 52.27987 6.10605 34295 ft 438 kts 294°
2026-04-21 00:50 52.30364 6.01443 34295 ft 438 kts 294°
2026-04-21 00:51 52.32735 5.92269 34289 ft 438 kts 294°
2026-04-21 00:51 52.35049 5.83058 34305 ft 438 kts 293°
2026-04-21 00:52 52.37342 5.73828 34308 ft 438 kts 293°
2026-04-21 00:52 52.39629 5.64597 34299 ft 438 kts 293°
2026-04-21 00:53 52.41907 5.55351 34322 ft 438 kts 293°
2026-04-21 00:53 52.44181 5.46096 34315 ft 438 kts 293°
2026-04-21 00:54 52.46453 5.36818 34317 ft 439 kts 293°
2026-04-21 00:54 52.48720 5.27530 34314 ft 439 kts 293°
2026-04-21 00:55 52.50976 5.18223 34311 ft 439 kts 293°
2026-04-21 00:55 52.53231 5.08922 34310 ft 439 kts 293°
2026-04-21 00:56 52.55477 4.99604 34309 ft 439 kts 292°
2026-04-21 00:56 52.57698 4.90343 34297 ft 438 kts 292°
2026-04-21 00:57 52.59926 4.81014 34310 ft 438 kts 293°
2026-04-21 00:57 52.62146 4.71682 34307 ft 437 kts 292°
2026-04-21 00:58 52.64353 4.62364 34304 ft 437 kts 292°
2026-04-21 00:58 52.66549 4.53029 34310 ft 437 kts 292°
2026-04-21 00:59 52.68745 4.43699 34310 ft 437 kts 292°
2026-04-21 00:59 52.70935 4.34331 34305 ft 438 kts 293°
2026-04-21 01:00 52.73116 4.24947 34306 ft 438 kts 293°
2026-04-21 01:00 52.75290 4.15558 34319 ft 438 kts 292°
2026-04-21 01:01 52.77456 4.06146 34318 ft 438 kts 292°
2026-04-21 01:01 52.79618 3.96732 34325 ft 438 kts 292°
2026-04-21 01:02 52.81774 3.87314 34333 ft 438 kts 292°
2026-04-21 01:02 52.83915 3.77899 34337 ft 437 kts 292°
2026-04-21 01:03 52.86031 3.68564 34339 ft 436 kts 292°
2026-04-21 01:03 52.88165 3.59115 34338 ft 435 kts 292°
2026-04-21 01:04 52.90276 3.49699 34322 ft 436 kts 291°
2026-04-21 01:04 52.92365 3.40348 34339 ft 435 kts 291°
2026-04-21 01:05 52.94456 3.30959 34344 ft 434 kts 291°
2026-04-21 01:05 52.96530 3.21567 34345 ft 433 kts 291°
2026-04-21 01:06 52.98604 3.12172 34320 ft 435 kts 292°
2026-04-21 01:06 53.00683 3.02723 34312 ft 437 kts 291°
2026-04-21 01:07 53.02755 2.93248 34335 ft 437 kts 291°
2026-04-21 01:07 53.04818 2.83756 34357 ft 436 kts 291°
2026-04-21 01:08 53.06860 2.74277 34356 ft 436 kts 291°
2026-04-21 01:08 53.08900 2.64783 34353 ft 436 kts 290°
2026-04-21 01:09 53.10938 2.55279 34351 ft 436 kts 291°
2026-04-21 01:09 53.12977 2.45779 34374 ft 435 kts 290°
2026-04-21 01:10 53.14993 2.36292 34381 ft 433 kts 291°
2026-04-21 01:10 53.16993 2.26834 34376 ft 433 kts 290°
2026-04-21 01:11 53.18984 2.17355 34366 ft 433 kts 290°
2026-04-21 01:11 53.20967 2.07874 34380 ft 433 kts 290°
2026-04-21 01:12 53.22937 1.98449 34380 ft 432 kts 290°
2026-04-21 01:12 53.24909 1.88982 34396 ft 432 kts 290°
2026-04-21 01:13 53.26874 1.79495 34385 ft 432 kts 290°
2026-04-21 01:13 53.28826 1.69987 34366 ft 434 kts 289°
2026-04-21 01:14 53.30776 1.60441 34395 ft 434 kts 289°
2026-04-21 01:14 53.31750 1.55665 34204 ft 434 kts 290°
2026-04-21 01:14 53.32697 1.50858 33458 ft 434 kts 285°
2026-04-21 01:15 53.33413 1.45986 32999 ft 429 kts 284°
2026-04-21 01:15 53.34113 1.41160 32506 ft 425 kts 284°
2026-04-21 01:15 53.34810 1.36380 32030 ft 421 kts 284°
2026-04-21 01:15 53.35502 1.31635 31546 ft 417 kts 284°
2026-04-21 01:16 53.36183 1.26936 31064 ft 415 kts 283°
2026-04-21 01:16 53.36862 1.22237 30591 ft 415 kts 283°
2026-04-21 01:16 53.37539 1.17541 30050 ft 414 kts 283°
2026-04-21 01:16 53.38213 1.12838 29582 ft 416 kts 283°
2026-04-21 01:17 53.38883 1.08151 29118 ft 412 kts 283°
2026-04-21 01:17 53.39541 1.03504 28631 ft 409 kts 283°
2026-04-21 01:17 53.40193 0.98877 28163 ft 406 kts 283°
2026-04-21 01:17 53.40837 0.94299 27694 ft 403 kts 283°
2026-04-21 01:18 53.41477 0.89746 27235 ft 401 kts 283°
2026-04-21 01:18 53.42115 0.85195 26772 ft 399 kts 282°
2026-04-21 01:18 53.42750 0.80672 26308 ft 397 kts 282°
2026-04-21 01:18 53.43379 0.76179 25857 ft 396 kts 282°
2026-04-21 01:19 53.43794 0.73202 25546 ft 395 kts 282°
2026-04-21 01:19 53.44418 0.68726 25100 ft 394 kts 282°
2026-04-21 01:19 53.45039 0.64252 24651 ft 393 kts 282°
2026-04-21 01:19 53.45657 0.59788 24195 ft 393 kts 282°
2026-04-21 01:20 53.46273 0.55320 23706 ft 392 kts 282°
2026-04-21 01:20 53.46890 0.50812 23257 ft 390 kts 282°
2026-04-21 01:20 53.47491 0.46399 22792 ft 386 kts 282°
2026-04-21 01:20 53.48084 0.42042 22349 ft 381 kts 282°
2026-04-21 01:21 53.48667 0.37734 21909 ft 376 kts 282°
2026-04-21 01:21 53.49239 0.33522 21472 ft 373 kts 282°
2026-04-21 01:21 53.49813 0.29302 21040 ft 370 kts 282°
2026-04-21 01:21 53.50382 0.25107 20608 ft 367 kts 282°
2026-04-21 01:22 53.50943 0.20944 20182 ft 364 kts 282°
2026-04-21 01:22 53.51496 0.16814 19765 ft 361 kts 282°
2026-04-21 01:22 53.52046 0.12707 19330 ft 359 kts 282°
2026-04-21 01:22 53.52591 0.08628 18922 ft 356 kts 282°
2026-04-21 01:23 53.53129 0.04585 18478 ft 354 kts 282°
2026-04-21 01:23 53.53661 0.00566 18051 ft 351 kts 282°
2026-04-21 01:23 53.54185 -0.03414 17651 ft 346 kts 282°
2026-04-21 01:23 53.54700 -0.07331 17252 ft 341 kts 282°
2026-04-21 01:24 53.55211 -0.11205 16858 ft 337 kts 283°
2026-04-21 01:24 53.55717 -0.15043 16460 ft 335 kts 283°
2026-04-21 01:24 53.56214 -0.18841 16078 ft 332 kts 282°
2026-04-21 01:24 53.56705 -0.22629 15691 ft 330 kts 282°
2026-04-21 01:25 53.57193 -0.26399 15307 ft 328 kts 283°
2026-04-21 01:25 53.57679 -0.30137 14925 ft 326 kts 283°
2026-04-21 01:25 53.58161 -0.33840 14550 ft 324 kts 283°
2026-04-21 01:25 53.58640 -0.37539 14171 ft 322 kts 283°
2026-04-21 01:26 53.59113 -0.41211 13775 ft 320 kts 283°
2026-04-21 01:26 53.59581 -0.44866 13406 ft 319 kts 283°
2026-04-21 01:26 53.60048 -0.48509 13036 ft 318 kts 283°
2026-04-21 01:26 53.60510 -0.52136 12676 ft 316 kts 283°
2026-04-21 01:27 53.60968 -0.55753 12305 ft 315 kts 283°
2026-04-21 01:27 53.61424 -0.59341 11943 ft 313 kts 283°
2026-04-21 01:27 53.61878 -0.62928 11589 ft 312 kts 283°
2026-04-21 01:27 53.62326 -0.66467 11291 ft 306 kts 283°
2026-04-21 01:28 53.62769 -0.69961 10890 ft 304 kts 283°
2026-04-21 01:28 53.63208 -0.73427 10521 ft 301 kts 283°
2026-04-21 01:28 53.63638 -0.76860 10160 ft 298 kts 283°
2026-04-21 01:28 53.64059 -0.80262 9806 ft 296 kts 283°
2026-04-21 01:29 53.64481 -0.83653 9462 ft 294 kts 283°
2026-04-21 01:29 53.64901 -0.87007 9133 ft 293 kts 283°
2026-04-21 01:29 53.65205 -0.90397 8782 ft 292 kts 273°
2026-04-21 01:29 53.65222 -0.93821 8393 ft 291 kts 271°
2026-04-21 01:30 53.65226 -0.97215 8015 ft 290 kts 272°
2026-04-21 01:30 53.65230 -1.00601 7644 ft 288 kts 272°
2026-04-21 01:30 53.65236 -1.03974 7273 ft 287 kts 272°
2026-04-21 01:30 53.65241 -1.07334 6912 ft 286 kts 272°
2026-04-21 01:31 53.65245 -1.10686 6520 ft 285 kts 272°
2026-04-21 01:31 53.65248 -1.14017 6176 ft 282 kts 272°
2026-04-21 01:31 53.65252 -1.17249 6044 ft 271 kts 272°
2026-04-21 01:31 53.65256 -1.20370 5910 ft 261 kts 272°
2026-04-21 01:32 53.65260 -1.23369 5775 ft 250 kts 272°
2026-04-21 01:32 53.65243 -1.26250 5546 ft 245 kts 265°
2026-04-21 01:32 53.65044 -1.29089 5197 ft 246 kts 264°
2026-04-21 01:32 53.64850 -1.31945 5026 ft 246 kts 265°
2026-04-21 01:33 53.64949 -1.34823 4919 ft 244 kts 291°
2026-04-21 01:33 53.65735 -1.37210 4738 ft 228 kts 317°
2026-04-21 01:33 53.66931 -1.38822 4526 ft 215 kts 330°
2026-04-21 01:33 53.68141 -1.40247 4291 ft 209 kts 330°
2026-04-21 01:34 53.69310 -1.41644 4075 ft 203 kts 330°
2026-04-21 01:34 53.70440 -1.43003 3874 ft 198 kts 330°
2026-04-21 01:34 53.71619 -1.44098 3665 ft 188 kts 354°
2026-04-21 01:34 53.72862 -1.43916 3370 ft 176 kts 29°
2026-04-21 01:35 53.73730 -1.42611 3136 ft 164 kts 57°
2026-04-21 01:35 53.74381 -1.41068 2914 ft 158 kts 56°
2026-04-21 01:35 53.75002 -1.39606 2708 ft 148 kts 56°
2026-04-21 01:35 53.75589 -1.38216 2524 ft 143 kts 56°
2026-04-21 01:36 53.76159 -1.36861 2349 ft 141 kts 57°
2026-04-21 01:36 53.76726 -1.35518 2157 ft 140 kts 56°
2026-04-21 01:36 53.77288 -1.34179 1964 ft 139 kts 56°
2026-04-21 01:36 53.77850 -1.32847 1783 ft 138 kts 55°
2026-04-21 01:37 53.78411 -1.31527 1584 ft 138 kts 54°
2026-04-21 01:37 53.78968 -1.30214 1406 ft 137 kts 54°
2026-04-21 01:37 53.79519 -1.28897 1227 ft 137 kts 54°
2026-04-21 01:37 53.80072 -1.27584 1043 ft 137 kts 54°
2026-04-21 01:38 53.80622 -1.26273 857 ft 137 kts 53°
2026-04-21 01:38 53.81177 -1.24961 697 ft 138 kts 54°
2026-04-21 01:38 53.81733 -1.23635 506 ft 139 kts 53°
2026-04-21 01:38 53.82289 -1.22303 319 ft 139 kts 53°
2026-04-21 01:39 53.82850 -1.20973 155 ft 139 kts 52°
2026-04-21 01:39 53.83407 -1.19667 40 ft 128 kts 53°
2026-04-21 01:39 53.83770 -1.18789 40 ft 34 kts 56°
2026-04-21 01:39 53.83842 -1.18611 38 ft 18 kts 55°
2026-04-21 01:40 53.83897 -1.18434 39 ft 9 kts 67°
2026-04-21 01:40 53.83921 -1.18444 38 ft 3 kts 237°
2026-04-21 01:40 53.83900 -1.18481 39 ft 5 kts 227°
2026-04-21 01:40 53.83872 -1.18538 38 ft 7 kts 235°
2026-04-21 01:41 53.83839 -1.18618 38 ft 10 kts 235°
2026-04-21 01:41 53.83794 -1.18725 40 ft 12 kts 235°
2026-04-21 01:41 53.83738 -1.18860 40 ft 16 kts 234°
2026-04-21 01:41 53.83666 -1.19029 41 ft 19 kts 235°
2026-04-21 01:42 53.83582 -1.19233 39 ft 23 kts 234°
2026-04-21 01:42 53.83480 -1.19474 37 ft 27 kts 234°
2026-04-21 01:42 53.83365 -1.19748 37 ft 27 kts 234°
2026-04-21 01:42 53.83324 -1.19900 39 ft 7 kts 302°
2026-04-21 01:43 53.83370 -1.19965 38 ft 10 kts 324°
2026-04-21 01:43 53.83396 -1.20067 38 ft 11 kts 263°
2026-04-21 01:43 53.83388 -1.20206 38 ft 12 kts 265°
2026-04-21 01:43 53.83355 -1.20346 38 ft 14 kts 239°
2026-04-21 01:44 53.83296 -1.20455 38 ft 9 kts 214°
2026-04-21 01:44 53.83298 -1.20534 38 ft 8 kts 338°
2026-04-21 01:44 53.83308 -1.20496 38 ft 4 kts 104°
2026-04-21 01:44 53.83305 -1.20488 38 ft 0 kts 124°
2026-04-21 01:45 53.74588 -1.40585 59 ft 123 kts 49°